• In Hungary
  • List of Countries
  • For 7 days
  • Water Temperature
  • Satellite Maps
  • Weather Map
  • News
  • Weather Widgets
  • user-avatar
    Login

    Hourly Weather Gostynie

    Today, 22 October, Monday

    Time Temperature Precipitation Wind Pressure Humidity
    00:00 +6°C° 0 mm 2 mps 759 mmHg 81%
    01:00 +6°C° 0 mm 2 mps 759 mmHg 82%
    02:00 +6°C° 0 mm 2 mps 759 mmHg 83%
    03:00 +5°C° 0 mm 2 mps 758 mmHg 85%
    04:00 +5°C° 0 mm 2 mps 758 mmHg 86%
    05:00 +5°C° 0 mm 2 mps 758 mmHg 87%
    06:00 +5°C° 0 mm 2 mps 758 mmHg 87%
    07:00 +5°C° 0 mm 2 mps 758 mmHg 88%
    08:00 +7°C° 0 mm 2 mps 758 mmHg 80%
    09:00 +8°C° 0 mm 3 mps 758 mmHg 73%
    10:00 +10°C° 0 mm 3 mps 757 mmHg 66%
    11:00 +11°C° 0 mm 4 mps 757 mmHg 64%
    12:00 +12°C° 0 mm 4 mps 757 mmHg 61%
    13:00 +12°C° 0 mm 4 mps 756 mmHg 59%
    14:00 +12°C° 0 mm 4 mps 756 mmHg 63%
    15:00 +11°C° 0 mm 4 mps 756 mmHg 67%
    16:00 +11°C° 0 mm 4 mps 755 mmHg 70%
    17:00 +10°C° 0.5 mm 4 mps 756 mmHg 75%
    18:00 +9°C° 0.5 mm 5 mps 756 mmHg 79%
    19:00 +8°C° 0.5 mm 5 mps 756 mmHg 84%
    20:00 +8°C° 0 mm 5 mps 757 mmHg 84%
    21:00 +7°C° 0 mm 4 mps 757 mmHg 84%
    22:00 +6°C° 0 mm 4 mps 757 mmHg 84%
    23:00 +5°C° 0 mm 4 mps 757 mmHg 83%

    Tomorrow, 23 October, Tuesday

    Time Temperature Precipitation Wind Pressure Humidity
    00:00 +5°C° 0 mm 4 mps 757 mmHg 83%
    01:00 +5°C° 0 mm 4 mps 757 mmHg 83%
    02:00 +5°C° 0 mm 4 mps 757 mmHg 83%
    03:00 +4°C° 0 mm 4 mps 756 mmHg 82%
    04:00 +4°C° 0 mm 4 mps 756 mmHg 82%
    05:00 +3°C° 0 mm 5 mps 755 mmHg 81%
    06:00 +5°C° 0 mm 5 mps 755 mmHg 80%
    07:00 +4°C° 0 mm 6 mps 754 mmHg 79%
    08:00 +4°C° 0.2 mm 7 mps 753 mmHg 77%
    09:00 +5°C° 0.2 mm 8 mps 752 mmHg 75%
    10:00 +5°C° 0.2 mm 9 mps 751 mmHg 73%
    11:00 +5°C° 1 mm 9 mps 750 mmHg 75%
    12:00 +5°C° 1 mm 10 mps 748 mmHg 77%
    13:00 +4°C° 1 mm 11 mps 747 mmHg 79%
    14:00 +4°C° 0.8 mm 11 mps 746 mmHg 80%
    15:00 +6°C° 0.8 mm 11 mps 744 mmHg 80%
    16:00 +7°C° 0.8 mm 12 mps 743 mmHg 80%
    17:00 +7°C° 0.8 mm 11 mps 742 mmHg 82%
    18:00 +8°C° 0.8 mm 11 mps 742 mmHg 83%
    19:00 +9°C° 0.8 mm 11 mps 741 mmHg 84%
    20:00 +9°C° 1 mm 11 mps 741 mmHg 82%
    21:00 +9°C° 1 mm 10 mps 740 mmHg 81%
    22:00 +9°C° 1 mm 10 mps 740 mmHg 79%
    23:00 +9°C° 1.4 mm 11 mps 739 mmHg 80%

    Day after tomorrow, 24 October, Wednesday

    Time Temperature Precipitation Wind Pressure Humidity
    00:00 +9°C° 1.4 mm 11 mps 739 mmHg 81%
    01:00 +9°C° 1.4 mm 12 mps 738 mmHg 82%
    02:00 +8°C° 0.4 mm 12 mps 738 mmHg 76%
    03:00 +7°C° 0.4 mm 11 mps 738 mmHg 71%
    04:00 +6°C° 0.4 mm 11 mps 738 mmHg 65%
    05:00 +6°C° 0 mm 11 mps 739 mmHg 64%
    06:00 +5°C° 0 mm 10 mps 740 mmHg 63%
    07:00 +3°C° 0 mm 9 mps 741 mmHg 61%
    08:00 +5°C° 0 mm 10 mps 742 mmHg 56%
    09:00 +4°C° 0 mm 11 mps 742 mmHg 51%
    10:00 +6°C° 0 mm 11 mps 743 mmHg 47%
    11:00 +6°C° 0 mm 11 mps 743 mmHg 45%
    12:00 +7°C° 0 mm 11 mps 744 mmHg 44%
    13:00 +7°C° 0 mm 11 mps 744 mmHg 42%
    14:00 +6°C° 0 mm 10 mps 745 mmHg 43%
    15:00 +6°C° 0 mm 9 mps 745 mmHg 44%
    16:00 +6°C° 0 mm 8 mps 746 mmHg 45%
    17:00 +5°C° 0 mm 8 mps 746 mmHg 47%
    18:00 +4°C° 0 mm 8 mps 747 mmHg 50%
    19:00 +4°C° 0 mm 7 mps 748 mmHg 52%
    20:00 +4°C° 0 mm 7 mps 748 mmHg 54%
    21:00 +3°C° 0 mm 7 mps 749 mmHg 56%
    22:00 +3°C° 0 mm 6 mps 749 mmHg 58%
    23:00 +3°C° 0 mm 6 mps 750 mmHg 61%

    25 October, Thursday

    Time Temperature Precipitation Wind Pressure Humidity
    00:00 +3°C° 0 mm 6 mps 750 mmHg 63%
    01:00 +2°C° 0 mm 6 mps 750 mmHg 66%
    02:00 +2°C° 0 mm 6 mps 750 mmHg 69%
    03:00 +2°C° 0 mm 5 mps 750 mmHg 71%
    04:00 +2°C° 0 mm 5 mps 751 mmHg 73%
    05:00 +1°C° 0 mm 5 mps 750 mmHg 76%
    06:00 +1°C° 0 mm 5 mps 750 mmHg 79%
    07:00 +1°C° 0 mm 5 mps 750 mmHg 82%
    08:00 +2°C° 0 mm 5 mps 750 mmHg 81%
    09:00 +3°C° 0 mm 6 mps 750 mmHg 80%
    10:00 +5°C° 0 mm 6 mps 750 mmHg 78%
    11:00 +5°C° 0.2 mm 7 mps 749 mmHg 81%
    12:00 +6°C° 0.2 mm 7 mps 749 mmHg 83%
    13:00 +6°C° 0.2 mm 7 mps 748 mmHg 86%
    14:00 +8°C° 0.1 mm 7 mps 748 mmHg 83%
    15:00 +8°C° 0.1 mm 7 mps 747 mmHg 81%
    16:00 +9°C° 0.1 mm 7 mps 747 mmHg 79%
    17:00 +9°C° 0 mm 7 mps 747 mmHg 79%
    18:00 +8°C° 0 mm 7 mps 747 mmHg 79%
    19:00 +8°C° 0 mm 7 mps 747 mmHg 79%
    20:00 +8°C° 0 mm 6 mps 747 mmHg 80%
    21:00 +8°C° 0 mm 6 mps 747 mmHg 80%
    22:00 +7°C° 0 mm 6 mps 747 mmHg 81%
    23:00 +7°C° 0 mm 6 mps 747 mmHg 82%

    26 October, Friday

    Time Temperature Precipitation Wind Pressure Humidity
    00:00 +7°C° 0 mm 6 mps 747 mmHg 83%
    01:00 +7°C° 0 mm 6 mps 747 mmHg 85%
    02:00 +7°C° 0 mm 5 mps 747 mmHg 87%
    03:00 +6°C° 0 mm 5 mps 746 mmHg 89%
    04:00 +6°C° 0 mm 4 mps 746 mmHg 91%
    05:00 +6°C° 0 mm 4 mps 746 mmHg 92%
    06:00 +6°C° 0 mm 4 mps 746 mmHg 92%
    07:00 +6°C° 0 mm 4 mps 746 mmHg 93%
    08:00 +7°C° 0 mm 4 mps 746 mmHg 88%
    09:00 +8°C° 0 mm 4 mps 746 mmHg 84%
    10:00 +9°C° 0 mm 5 mps 746 mmHg 79%
    11:00 +9°C° 0 mm 5 mps 745 mmHg 78%
    12:00 +10°C° 0 mm 5 mps 745 mmHg 78%
    13:00 +10°C° 0 mm 5 mps 744 mmHg 77%
    14:00 +11°C° 0 mm 4 mps 744 mmHg 76%
    15:00 +11°C° 0 mm 4 mps 743 mmHg 75%
    16:00 +11°C° 0 mm 3 mps 743 mmHg 74%
    17:00 +11°C° 0 mm 3 mps 743 mmHg 76%
    18:00 +10°C° 0 mm 3 mps 743 mmHg 77%
    19:00 +10°C° 0 mm 3 mps 743 mmHg 79%
    20:00 +10°C° 0 mm 4 mps 743 mmHg 80%
    21:00 +10°C° 0 mm 4 mps 742 mmHg 81%
    22:00 +10°C° 0 mm 4 mps 742 mmHg 81%
    23:00 +8°C° 0 mm 4 mps 742 mmHg 83%

    27 October, Saturday

    Time Temperature Precipitation Wind Pressure Humidity
    00:00 +8°C° 0 mm 4 mps 742 mmHg 84%
    01:00 +9°C° 0 mm 3 mps 742 mmHg 86%
    02:00 +9°C° 0 mm 3 mps 742 mmHg 87%
    03:00 +8°C° 0 mm 3 mps 742 mmHg 89%
    04:00 +8°C° 0 mm 3 mps 742 mmHg 90%
    05:00 +8°C° 0 mm 3 mps 742 mmHg 91%
    06:00 +8°C° 0 mm 2 mps 741 mmHg 92%
    07:00 +8°C° 0 mm 2 mps 741 mmHg 93%
    08:00 +8°C° 0.1 mm 2 mps 741 mmHg 89%
    09:00 +10°C° 0.1 mm 1 mps 741 mmHg 86%
    10:00 +11°C° 0.1 mm 1 mps 740 mmHg 83%
    11:00 +11°C° 0.4 mm 1 mps 740 mmHg 83%
    12:00 +11°C° 0.4 mm 1 mps 740 mmHg 83%
    13:00 +11°C° 0.4 mm 1 mps 739 mmHg 83%
    14:00 +9°C° 0.7 mm 2 mps 739 mmHg 85%
    15:00 +9°C° 0.7 mm 3 mps 739 mmHg 87%
    16:00 +9°C° 0.7 mm 3 mps 738 mmHg 89%
    17:00 +7°C° 0.6 mm 4 mps 739 mmHg 88%
    18:00 +6°C° 0.6 mm 4 mps 739 mmHg 87%
    19:00 +6°C° 0.6 mm 4 mps 739 mmHg 86%
    20:00 +6°C° 0.9 mm 4 mps 739 mmHg 85%
    21:00 +5°C° 0.9 mm 4 mps 739 mmHg 85%
    22:00 +5°C° 0.9 mm 4 mps 739 mmHg 84%
    23:00 +5°C° 0.5 mm 4 mps 740 mmHg 85%

    28 October, Sunday

    Time Temperature Precipitation Wind Pressure Humidity
    00:00 +5°C° 0.5 mm 4 mps 740 mmHg 85%
    01:00 +5°C° 0.5 mm 3 mps 740 mmHg 86%
    02:00 +5°C° 0.2 mm 3 mps 740 mmHg 86%
    03:00 +5°C° 0.2 mm 3 mps 741 mmHg 87%
    04:00 +6°C° 0.2 mm 2 mps 741 mmHg 87%
    05:00 +6°C° 0.1 mm 2 mps 741 mmHg 87%
    06:00 +6°C° 0.1 mm 2 mps 742 mmHg 88%
    07:00 +6°C° 0.1 mm 2 mps 742 mmHg 88%
    08:00 +6°C° 0 mm 2 mps 743 mmHg 84%
    09:00 +7°C° 0 mm 2 mps 743 mmHg 80%
    10:00 +7°C° 0 mm 2 mps 744 mmHg 75%
    11:00 +8°C° 0 mm 2 mps 744 mmHg 71%
    12:00 +10°C° 0 mm 1 mps 744 mmHg 66%
    13:00 +10°C° 0 mm 1 mps 744 mmHg 62%
    14:00 +10°C° 0 mm 1 mps 745 mmHg 64%
    15:00 +9°C° 0 mm 1 mps 745 mmHg 66%
    16:00 +8°C° 0 mm 0 mps 745 mmHg 68%
    17:00 +7°C° 0 mm 0 mps 745 mmHg 70%
    18:00 +7°C° 0 mm 0 mps 746 mmHg 72%
    19:00 +7°C° 0 mm 1 mps 746 mmHg 74%
    20:00 +6°C° 0 mm 0 mps 747 mmHg 75%
    21:00 +6°C° 0 mm 0 mps 747 mmHg 76%
    22:00 +6°C° 0 mm 0 mps 748 mmHg 77%
    23:00 +6°C° 0 mm 0 mps 748 mmHg 78%
    Show more